sat.trackr.live / text

‹ back to catalog

STARLINK-35628

NORAD 66123 · 2025-237K

PAYLOAD ACTIVE UNKNOWN

§ Identity

Operator
Country
US
Launch date
2025-10-22
Launch site
AFWTR
Launch vehicle
Mass (kg)
RCS (m²)

Purposes: comms

External: N2YO · Heavens-Above · Gunter

§ Orbital elements

Epoch: 2026-05-24T23:31:47.225280Z

Period
94.11 min
Inclination
53.1619°
Eccentricity
0.0001316
Mean motion
15.30204479 rev/d
Perigee alt
474.3 km
Apogee alt
476.1 km
Semi-major
6,853.3 km
B*
6.0729e-4
RAAN
45.0692°
Arg perigee
94.0611°
Mean anomaly
266.0541°
Rev number
3,429

§ Raw data

STARLINK-356281 66123U 25237K   26144.98040770  .00017672  00000+0  60729-3 0  99982 66123  53.1619  45.0692 0001316  94.0611 266.0541 15.30204479 34290

JSON: /api/v1/satellites/66123 · /tle

For live sub-satellite position, see the globe view (requires WebGL).

§ Visibility from observer

Set your observer location to see the next 7 days of passes ≥ 10°. The values pass through the URL so the page stays shareable.

No JS? Fill the form by hand. The geolocation button needs JavaScript.